Location: Newark
(34.1765°N, 84.7452°W)
Time: 13:02:56
(UTC+00:00)

Starlink Launch 2 leader - Visible Passes

Search period start: 15 December 2019 00:00
Search period end: 25 December 2019 00:00
Orbit: 279 x 281 km, 53.0° (Epoch: 13 November)

Date Brightness Start Highest point End Pass type
(mag) Time Alt. Az. Time Alt. Az. Time Alt. Az.
19 Dec 6.0 00:38:28 10° WSW 00:38:32 11° WSW 00:38:32 11° WSW visible
19 Dec 4.6 23:08:07 10° SSE 23:09:23 13° SE 23:10:40 10° E visible
20 Dec 6.1 00:40:52 10° W 00:40:55 10° W 00:40:55 10° W visible
20 Dec 3.3 23:08:58 10° SSW 23:11:11 30° SE 23:13:04 13° ENE visible
21 Dec 2.2 23:10:36 10° SW 23:13:04 89° E 23:15:17 12° NE visible
22 Dec 3.6 23:12:44 10° WSW 23:15:00 33° NW 23:17:17 10° NNE visible
23 Dec 4.8 23:15:21 10° W 23:17:01 16° NW 23:18:42 10° N visible
